Regional Weather Roundup
Issued by NWS

Home | Current Version | Previous Version | Graphics & Text | Print | Product List | Glossary On
Versions: 1 2 3 4 5 6 7 8 9 10 11 12 13 14 15 16 17 18 19 20 21 22 23 24 25 26 27 28 29 30 31 32 33 34 35 36 37 38 39 40 41 42 43 44 45 46 47 48 49 50
000
ASUS43 KFSD 262302
RWRSD

WEATHER ROUNDUP FOR SOUTH DAKOTA
NATIONAL WEATHER SERVICE SIOUX FALLS SD
600 PM CDT FRI MAY 26 2017

NOTE: "FAIR" INDICATES FEW OR NO CLOUDS BELOW 12,000 FEET WITH NO
SIGNIFICANT WEATHER AND/OR OBSTRUCTIONS TO VISIBILITY.


SDZ001>005-009-010-012>017-270000-
NORTHWEST AND NORTH CENTRAL SOUTH DAKOTA

CITY           SKY/WX    TMP DP  RH WIND       PRES   REMARKS
BUFFALO          N/A     64  36  35 NW14      29.81S
FAITH            N/A     66  37  34 NW15G22   29.85F
MOBRIDGE       CLOUDY    72  38  29 NW15      29.78S
$$

SDZ012>016-024>037-041>051-057-063-072>074-270000-
SOUTHWEST AND SOUTH CENTRAL SOUTH DAKOTA

CITY           SKY/WX    TMP DP  RH WIND       PRES   REMARKS
RAPID CTY ARPT CLOUDY    61  39  44 S7        29.91R
PIERRE         MOSUNNY   70  36  28 NW9       29.82S
CUSTER         LGT RAIN  48  37  65 S5        29.96R
ELLSWORTH AFB  CLOUDY    60  40  48 CALM      29.91R
PHILIP         CLOUDY    68  37  32 NW9G21    29.86S
PINE RIDGE     LGT RAIN  65  39  38 NW6       29.91R
SPEARFISH      FAIR      57  43  58 SE5       29.92S
WINNER         FAIR      72  42  34 NW9       29.85S
$$

SDZ004>011-016>023-039-040-270000-
NORTHEAST SOUTH DAKOTA

CITY           SKY/WX    TMP DP  RH WIND       PRES   REMARKS
ABERDEEN       SUNNY     70  38  31 NW15G23   29.80S
WATERTOWN      SUNNY     69  40  34 W12       29.80R
BROOKINGS      SUNNY     70  42  36 W14       29.81S
SISSETON         N/A     71  44  37 NW18      29.77R
$$

SDZ017-020-022-023-036>040-048>070-270000-
SOUTHEAST SOUTH DAKOTA

CITY           SKY/WX    TMP DP  RH WIND       PRES   REMARKS
SIOUX FALLS    MOSUNNY   72  44  36 NW15      29.82S
HURON          SUNNY     73  41  31 NW16G25   29.80S
CHAMBERLAIN    SUNNY     73  40  30 W10G18    29.84S
MITCHELL       SUNNY     75  36  24 NW12      29.82S
YANKTON        SUNNY     73  44  35 W13       29.84S
$$

ABBREVIATIONS USED IN REMARKS
   TC - TEMPERATURE IN CELSIUS
  WCI - WIND CHILL INDEX
   HX - HEAT INDEX
  VSB - VISIBILITY




USA.gov is the U.S. government's official web portal to all federal, state and local government web resources and services.